TimeCDT,TemperatureF,Dew PointF,Humidity,Sea Level PressureIn,VisibilityMPH,Wind Direction,Wind SpeedMPH,Gust SpeedMPH,PrecipitationIn,Events,Conditions,WindDirDegrees,DateUTC
12:13 AM,46.4,44.6,93,29.88,4.0,Calm,Calm,-,0.01,,Mostly Cloudy,0,2013-05-19 05:13:00
12:33 AM,46.4,44.6,93,29.88,5.0,Calm,Calm,-,0.01,,Scattered Clouds,0,2013-05-19 05:33:00
12:53 AM,46.4,44.6,93,29.88,7.0,Calm,Calm,-,0.01,,Clear,0,2013-05-19 05:53:00
1:13 AM,46.4,44.6,93,29.87,5.0,Calm,Calm,-,0.01,,Clear,0,2013-05-19 06:13:00
1:33 AM,46.4,42.8,87,29.87,1.8,Calm,Calm,-,0.01,,Mist,0,2013-05-19 06:33:00
1:53 AM,44.6,42.8,93,29.87,3.0,Calm,Calm,-,N/A,,Scattered Clouds,0,2013-05-19 06:53:00
2:13 AM,46.4,42.8,87,29.86,7.0,Calm,Calm,-,N/A,,Clear,0,2013-05-19 07:13:00
2:34 AM,46.4,42.8,87,29.86,7.0,Calm,Calm,-,N/A,,Clear,0,2013-05-19 07:34:00
2:53 AM,44.6,41.0,87,29.86,0.8,Calm,Calm,-,N/A,,Mist,0,2013-05-19 07:53:00
3:13 AM,44.6,41.0,87,29.86,1.0,Calm,Calm,-,N/A,,Mist,0,2013-05-19 08:13:00
3:33 AM,42.8,41.0,93,29.87,1.8,Calm,Calm,-,N/A,,Mist,0,2013-05-19 08:33:00
3:53 AM,42.8,39.2,87,29.87,1.8,Calm,Calm,-,N/A,,Mist,0,2013-05-19 08:53:00
4:13 AM,42.8,39.2,87,29.87,1.0,Calm,Calm,-,N/A,,Mostly Cloudy,0,2013-05-19 09:13:00
4:33 AM,42.8,39.2,87,29.86,1.0,Calm,Calm,-,N/A,,Overcast,0,2013-05-19 09:33:00
4:53 AM,42.8,39.2,87,29.87,0.8,Calm,Calm,-,N/A,,Overcast,0,2013-05-19 09:53:00
5:13 AM,44.6,41.0,87,29.87,0.2,East,6.9,-,N/A,Fog,Fog,80,2013-05-19 10:13:00
5:33 AM,44.6,41.0,87,29.86,0.2,ENE,4.6,-,N/A,Fog,Fog,60,2013-05-19 10:33:00
5:53 AM,44.6,42.8,93,29.86,0.2,Calm,Calm,-,N/A,Fog,Fog,0,2013-05-19 10:53:00
6:13 AM,44.6,42.8,93,29.86,0.2,ENE,4.6,-,N/A,Fog,Fog,70,2013-05-19 11:13:00
6:33 AM,44.6,42.8,93,29.85,0.2,NE,5.8,-,N/A,Fog,Fog,50,2013-05-19 11:33:00
7:13 AM,46.4,42.8,87,29.86,0.5,ENE,4.6,-,N/A,Fog,Fog,70,2013-05-19 12:13:00
7:33 AM,46.4,42.8,87,29.87,0.2,ENE,5.8,-,N/A,Fog,Fog,70,2013-05-19 12:33:00
7:53 AM,46.4,44.6,93,29.88,1.0,East,5.8,-,N/A,,Overcast,80,2013-05-19 12:53:00
8:13 AM,46.4,44.6,93,29.88,1.5,ENE,3.5,-,N/A,,Overcast,60,2013-05-19 13:13:00
8:33 AM,46.4,44.6,93,29.87,3.0,ENE,5.8,-,N/A,Rain-Thunderstorm,Light Thunderstorms and Rain,60,2013-05-19 13:33:00
8:53 AM,48.2,46.4,93,29.87,2.0,NE,5.8,-,N/A,,Overcast,40,2013-05-19 13:53:00
9:13 AM,50.0,46.4,87,29.87,3.0,NE,4.6,-,N/A,,Overcast,40,2013-05-19 14:13:00
9:33 AM,51.8,48.2,88,29.87,4.0,Calm,Calm,-,0.01,,Overcast,0,2013-05-19 14:33:00
9:53 AM,51.8,48.2,88,29.87,4.0,ENE,6.9,-,N/A,,Overcast,60,2013-05-19 14:53:00
10:13 AM,51.8,46.4,82,29.86,3.0,ENE,9.2,-,N/A,,Overcast,70,2013-05-19 15:13:00
10:33 AM,51.8,46.4,82,29.86,3.0,East,6.9,16.1,N/A,,Overcast,80,2013-05-19 15:33:00
10:53 AM,51.8,46.4,82,29.84,2.5,NE,10.4,-,N/A,,Overcast,50,2013-05-19 15:53:00
11:13 AM,51.8,48.2,88,29.84,5.0,ENE,9.2,-,N/A,,Overcast,70,2013-05-19 16:13:00
11:33 AM,51.8,48.2,88,29.80,4.0,ENE,11.5,18.4,N/A,,Overcast,60,2013-05-19 16:33:00
11:53 AM,51.8,48.2,88,29.79,1.8,ENE,12.7,21.9,N/A,,Overcast,70,2013-05-19 16:53:00
12:13 PM,51.8,48.2,88,29.82,4.0,ENE,11.5,23.0,N/A,,Overcast,70,2013-05-19 17:13:00
12:33 PM,53.6,48.2,82,29.82,7.0,East,13.8,23.0,N/A,,Overcast,80,2013-05-19 17:33:00
12:53 PM,51.8,48.2,88,29.83,5.0,ENE,16.1,28.8,N/A,,Overcast,70,2013-05-19 17:53:00
1:13 PM,51.8,46.4,82,29.83,7.0,ENE,15.0,24.2,N/A,,Overcast,70,2013-05-19 18:13:00
1:33 PM,51.8,46.4,82,29.83,10.0,ENE,11.5,20.7,N/A,,Overcast,60,2013-05-19 18:33:00
2:13 PM,51.8,46.4,82,29.83,10.0,NE,12.7,20.7,N/A,,Overcast,50,2013-05-19 19:13:00
2:33 PM,51.8,46.4,82,29.83,10.0,ENE,12.7,21.9,N/A,,Overcast,60,2013-05-19 19:33:00
2:53 PM,51.8,46.4,82,29.82,10.0,NE,10.4,20.7,N/A,,Overcast,50,2013-05-19 19:53:00
3:13 PM,51.8,48.2,88,29.81,10.0,ENE,12.7,19.6,N/A,,Overcast,60,2013-05-19 20:13:00
3:33 PM,51.8,46.4,82,29.81,10.0,ENE,12.7,20.7,N/A,,Overcast,60,2013-05-19 20:33:00
3:53 PM,51.8,46.4,82,29.81,10.0,ENE,13.8,23.0,N/A,Rain,Light Rain,60,2013-05-19 20:53:00
4:13 PM,51.8,46.4,82,29.82,10.0,ENE,9.2,20.7,0.01,Rain,Light Rain,70,2013-05-19 21:13:00
4:33 PM,50.0,44.6,82,29.82,10.0,ENE,9.2,24.2,0.01,,Mostly Cloudy,70,2013-05-19 21:33:00
4:53 PM,50.0,46.4,87,29.82,10.0,ENE,8.1,17.3,N/A,,Mostly Cloudy,60,2013-05-19 21:53:00
5:13 PM,50.0,44.6,82,29.82,10.0,ENE,16.1,26.5,N/A,,Mostly Cloudy,70,2013-05-19 22:13:00
5:33 PM,50.0,46.4,87,29.81,10.0,ENE,19.6,31.1,N/A,,Mostly Cloudy,70,2013-05-19 22:33:00
5:53 PM,51.8,46.4,82,29.80,10.0,ENE,24.2,31.1,N/A,,Overcast,70,2013-05-19 22:53:00
6:13 PM,51.8,46.4,82,29.79,10.0,ENE,19.6,33.4,N/A,,Mostly Cloudy,70,2013-05-19 23:13:00
6:33 PM,51.8,46.4,82,29.79,10.0,ENE,20.7,33.4,N/A,,Mostly Cloudy,60,2013-05-19 23:33:00
6:53 PM,51.8,46.4,82,29.79,10.0,ENE,18.4,33.4,N/A,,Scattered Clouds,70,2013-05-19 23:53:00
7:13 PM,51.8,46.4,82,29.80,10.0,ENE,25.3,38.0,N/A,,Scattered Clouds,70,2013-05-20 00:13:00
7:33 PM,51.8,46.4,82,29.79,10.0,ENE,20.7,29.9,N/A,,Scattered Clouds,60,2013-05-20 00:33:00
7:53 PM,51.8,46.4,82,29.79,10.0,ENE,16.1,33.4,N/A,,Scattered Clouds,60,2013-05-20 00:53:00
8:13 PM,51.8,46.4,82,29.80,10.0,ENE,21.9,41.4,N/A,Thunderstorm,Mostly Cloudy,60,2013-05-20 01:13:00
8:33 PM,51.8,46.4,82,29.81,10.0,ENE,26.5,36.8,N/A,,Scattered Clouds,70,2013-05-20 01:33:00
8:53 PM,53.6,46.4,77,29.80,10.0,ENE,27.6,41.4,N/A,,Scattered Clouds,60,2013-05-20 01:53:00
9:13 PM,53.6,46.4,77,29.81,10.0,ENE,24.2,36.8,N/A,Rain,Light Rain,60,2013-05-20 02:13:00
9:33 PM,51.8,46.4,82,29.81,10.0,ENE,21.9,38.0,N/A,Rain,Light Rain,70,2013-05-20 02:33:00
9:53 PM,51.8,46.4,82,29.81,7.0,ENE,21.9,33.4,N/A,Rain,Heavy Rain,60,2013-05-20 02:53:00
10:13 PM,51.8,46.4,82,29.79,7.0,ENE,23.0,38.0,0.01,Rain,Heavy Rain,70,2013-05-20 03:13:00
10:33 PM,50.0,44.6,82,29.78,10.0,ENE,20.7,35.7,0.01,Rain,Light Rain,60,2013-05-20 03:33:00
11:13 PM,50.0,46.4,87,29.76,10.0,ENE,27.6,46.0,N/A,,Overcast,60,2013-05-20 04:13:00
11:33 PM,48.2,46.4,93,29.77,10.0,ENE,21.9,39.1,0.01,,Overcast,60,2013-05-20 04:33:00
11:53 PM,48.2,46.4,93,29.77,10.0,ENE,21.9,39.1,N/A,,Overcast,60,2013-05-20 04:53:00